This is the latest recevied weather packets stored in our database for station/object KC9MWQ-13. If no packets are shown the sender has not sent any weather packets the latest 10 day(s).
| Time | Temp. | Humidity | Pressure | Rain* | Wind** | Luminosity | Snow |
|---|---|---|---|---|---|---|---|
| 1777291921 | 11.67° C | 95% | 1016.3 hPa | 0 mm | - | 98 W/m² | - |
| 1777291618 | 11.67° C | 95% | 1016.2 hPa | 0 mm | - | 96 W/m² | - |
| 1777291315 | 11.11° C | 95% | 1016.3 hPa | 0 mm | - | 85 W/m² | - |
| 1777291011 | 11.11° C | 96% | 1016.3 hPa | 0 mm | - | 74 W/m² | - |
| 1777290708 | 10.56° C | 96% | 1016.1 hPa | 0 mm | - | 67 W/m² | - |
| 1777290405 | 10.56° C | 97% | 1016.3 hPa | 0 mm | - | 62 W/m² | - |
| 1777290099 | 10.56° C | 97% | 1015.7 hPa | 0 mm | - | 57 W/m² | - |
| 1777289797 | 10.56° C | 98% | 1016 hPa | 0 mm | - | 51 W/m² | - |
| 1777289493 | 10° C | 99% | 1016 hPa | 0 mm | - | 44 W/m² | - |
| 1777289189 | 10° C | 99% | 1015.8 hPa | 0 mm | - | 36 W/m² | - |
| 1777288886 | 9.44° C | 99% | 1015.9 hPa | 0 mm | - | 30 W/m² | - |
| 1777288582 | 9.44° C | 99% | 1015.9 hPa | 0 mm | - | 25 W/m² | - |
| 1777288279 | 9.44° C | 99% | 1015.9 hPa | 0 mm | - | 18 W/m² | - |
| 1777287976 | 8.89° C | 99% | 1016.3 hPa | 0 mm | - | 12 W/m² | - |
| 1777287673 | 8.89° C | 99% | 1016.2 hPa | 0 mm | - | 9 W/m² | - |
| 1777287369 | 8.89° C | 99% | 1016.2 hPa | 0 mm | - | 4 W/m² | - |
| 1777287065 | 8.89° C | 99% | 1016.3 hPa | 0 mm | - | 2 W/m² | - |
| 1777286762 | 8.33° C | 99% | 1016.3 hPa | 0 mm | - | 0 W/m² | - |
| 1777286460 | 8.33° C | 99% | 1016.2 hPa | 0 mm | - | 0 W/m² | - |
| 1777286156 | 8.33° C | 99% | 1016.5 hPa | 0 mm | - | 0 W/m² | - |
| 1777285854 | 8.33° C | 99% | 1016.5 hPa | 0 mm | - | 0 W/m² | - |
| 1777285551 | 8.33° C | 99% | 1016.7 hPa | 0 mm | - | 0 W/m² | - |
| 1777285248 | 8.33° C | 99% | 1016.5 hPa | 0 mm | - | 0 W/m² | - |
| 1777284946 | 8.33° C | 99% | 1016.8 hPa | 0 mm | - | 0 W/m² | - |
| 1777284642 | 8.33° C | 99% | 1016.6 hPa | 0 mm | - | 0 W/m² | - |
* Rain latest hour (hover to see other rain measurements)
** Current wind speed in m/s (hover to see current wind gust speed)